Location: Celina Division
(33.3022°N, 96.7580°W)
Time: 12:12:41
(UTC+00:00)

Max Valier Satellite - Visible Passes

Search period start: 28 March 2023 00:00
Search period end: 07 April 2023 00:00
Orbit: 454 x 467 km, 97.2° (Epoch: 27 March)

Date Brightness Start Highest point End Pass type
(mag) Time Alt. Az. Time Alt. Az. Time Alt. Az.
28 Mar ? 01:12:22 10° ESE 01:14:38 17° ENE 01:16:53 10° NNE visible
28 Mar ? 02:45:13 11° SW 02:47:27 19° W 02:49:56 10° NW visible
29 Mar ? 02:13:14 16° S 02:15:48 55° W 02:19:09 10° NNW visible
30 Mar ? 01:41:14 12° SSE 01:44:12 44° ENE 01:47:30 10° N visible
31 Mar ? 01:10:35 10° ESE 01:12:44 16° ENE 01:14:53 10° NNE visible
31 Mar ? 02:43:01 10° SW 02:45:31 20° W 02:48:06 10° NW visible
01 Apr ? 02:10:55 14° S 02:13:44 60° W 02:17:07 10° NNW visible
02 Apr ? 01:38:49 10° SSE 01:42:02 40° ENE 01:45:16 10° N visible
03 Apr ? 01:08:25 10° ESE 01:10:25 15° ENE 01:12:27 10° NE visible
03 Apr ? 02:40:31 10° SSW 02:43:11 21° W 02:45:52 10° NW visible
04 Apr ? 02:08:13 12° S 02:11:16 66° W 02:14:41 10° NNW visible
05 Apr ? 01:36:17 10° SE 01:39:27 37° ENE 01:42:38 10° N visible
06 Apr ? 02:37:40 10° SSW 02:40:26 23° W 02:43:14 10° NW visible
